Terug naar catalogus

SL-12 DEB

LostHEO
NORAD 44554·DEBRIS·🇷🇺 Russia

Gelanceerd Sep 2, 2010 vanaf Baikonur Cosmodrome

Loading…

Volgende Passages (komende 24 uur)

TLE

VerouderdSource: Space-Track

Epoch: Nov 9, 2019, 20:14 UTC

1 44554U 10041Z   19313.84317318  .00009514  00000-0  33075-1 0  9998
2 44554  65.1632 264.3150 5736918  32.5132 352.4691  4.19286774  2519

Volg SL-12 DEB in realtime met AllMySat

Download on the App Store